Temp
1 1 1 0 0 0 0 0 -0 -0 -0 -0 -0 -0 0 0 0 0 1 1 1 1 1 2 2 2 3 3 3 4 4 4 5 5 5 5 6 6 6 6 6 7 7 8 8 9 9 9 10 10 10 11 11 11 11 12 12 12 13 13 13 13 14 14 14 14 14 15 15
0 0 0 -0 -0 -0 -0 -0 -0 -1 -1 -1 -0 -0 -0 -0 -0 0 0 0 1 1 1 1 1 2 2 2 2 3 3 4 4 4 4 5 5 6 6 6 6 6 6 7 7 8 8 9 9 9 10 10 11 11 11 11 11 12 12 12 13 13 13 13 14 14 14 14 15
-0 -0 -0 -0 -1 -1 -1 -1 -1 -1 -1 -1 -1 -1 -0 -0 -0 -0 -0 0 0 0 0 1 1 1 1 1 2 2 3 3 3 3 4 4 5 5 5 5 5 6 6 6 7 7 7 8 8 9 9 10 10 10 11 11 11 11 12 12 12 13 13 13 13 14 14 14 14
-0 -1 -1 -1 -1 -1 -1 -1 -1 -1 -1 -1 -1 -1 -1 -1 -1 -1 -0 -0 -0 -0 0 0 0 1 1 1 2 2 2 2 3 3 3 4 4 4 5 5 5 5 6 6 6 7 7 7 8 8 8 9 9 10 10 11 11 11 11 12 12 12 13 13 13 14 14 14 14
-1 -1 -1 -1 -1 -1 -1 -0 -0 -0 -0 -0 -1 -1 -1 -1 -1 -1 -1 -0 -0 -0 -0 0 0 0 1 1 1 1 2 2 2 2 3 3 3 3 4 4 5 5 5 6 6 7 7 7 7 7 8 8 8 9 9 10 10 11 11 11 12 12 13 13 13 13 14 14 14
-1 -1 -1 -1 -1 -1 -0 -0 -0 -0 -0 -0 -0 -0 -0 -1 -1 -1 -1 -1 -0 -0 -0 -0 0 0 1 1 1 1 1 2 2 2 2 2 2 3 3 3 4 4 5 5 6 6 6 7 7 7 7 8 8 8 9 9 10 10 11 11 12 12 12 13 13 13 14 14 14
-1 -1 -1 -1 -1 -1 -0 -0 -0 -0 -0 -0 -0 -0 -0 -0 -0 -1 -1 -0 -0 -0 -0 -0 0 0 0 1 1 1 1 1 2 2 2 2 2 3 3 3 3 4 4 5 5 6 6 6 7 7 7 7 8 8 8 9 9 10 10 11 11 12 12 12 13 13 13 14 14
-1 -1 -1 -1 -1 -1 -1 -1 -1 -0 -0 -0 -0 -0 -0 -0 -0 -0 -0 -0 -0 -0 -0 -0 0 0 0 1 1 1 1 1 1 2 2 2 2 3 3 3 3 3 4 4 5 5 6 6 6 7 7 7 8 8 8 8 8 9 9 10 11 11 12 12 12 12 13 13 14
-1 -1 -1 -1 -1 -1 -1 -1 -1 -1 -0 -0 -0 -0 -0 -0 -0 -0 -0 -0 -0 -0 -0 0 0 0 0 1 1 1 1 1 1 1 2 2 2 2 3 3 3 3 4 4 4 5 5 6 6 6 7 7 7 8 8 8 8 8 9 9 10 11 11 11 12 12 13 13 13
-1 -1 -1 -1 -1 -1 -1 -1 -1 -1 -0 -0 -0 -0 -0 -0 -0 -1 -0 -0 -0 -0 -0 0 0 0 0 1 1 1 1 1 1 2 2 2 2 2 2 3 3 3 3 4 4 4 5 5 6 6 7 7 7 7 8 8 8 8 9 9 10 10 11 11 11 12 12 13 13
-1 -1 -1 -1 -1 -1 -1 -1 -1 -1 -1 -0 -0 -0 -0 -0 -0 -0 -0 -0 -0 -0 -0 0 0 0 1 1 1 1 1 1 1 2 2 2 2 2 2 3 3 3 3 4 4 4 5 5 6 6 7 7 7 7 7 8 8 8 9 9 9 10 10 11 11 12 12 12 13
-1 -1 -1 -1 -1 -1 -1 -1 -1 -1 -1 -1 -0 -0 -0 -0 -0 -0 -0 -0 -0 -0 0 0 0 0 1 1 1 1 1 1 1 1 2 2 2 2 2 2 3 3 3 4 4 4 4 5 5 6 6 7 7 7 7 7 8 8 8 9 9 9 10 10 11 12 12 12 13
-1 -1 -1 -1 -1 -1 -1 -1 -1 -1 -1 -1 -1 -0 -0 -0 -0 -0 -0 -0 0 0 0 0 0 1 1 1 1 1 1 1 1 1 2 2 2 2 2 2 3 3 3 3 4 4 4 5 5 6 6 7 7 7 7 7 8 8 8 9 9 9 10 10 10 11 12 12 12
-1 -1 -1 -1 -1 -1 -1 -1 -1 -1 -1 -1 -1 -1 -1 -0 -0 -0 -0 -0 0 0 0 0 0 1 1 1 1 1 1 1 1 2 2 2 2 2 2 3 3 3 3 3 4 4 4 5 5 6 6 7 7 7 7 7 8 8 8 9 9 9 9 10 10 11 11 12 12
-1 -1 -1 -1 -1 -1 -1 -1 -1 -1 -1 -1 -1 -1 -1 -1 -1 -1 -0 -0 -0 -0 0 0 0 1 1 1 1 1 1 1 1 2 2 2 2 2 3 3 3 3 4 4 4 4 4 5 5 6 6 7 7 7 7 7 8 8 8 8 9 9 9 9 10 10 11 11 12
-1 -1 -1 -1 -1 -2 -2 -2 -2 -2 -2 -2 -1 -1 -1 -1 -1 -1 -1 -1 -0 -0 -0 0 0 1 1 1 1 1 1 2 2 2 2 2 2 3 3 3 3 4 4 4 4 4 5 5 5 6 6 7 7 7 7 7 7 8 8 8 8 9 9 9 10 10 10 11 11
-1 -1 -2 -2 -2 -2 -2 -2 -2 -2 -2 -2 -2 -2 -2 -1 -1 -1 -1 -1 -1 -0 -0 0 0 1 1 1 1 1 2 2 2 2 2 2 2 3 3 3 3 3 4 4 4 5 5 5 5 6 6 7 7 7 7 7 7 8 8 8 8 8 9 9 9 10 10 10 11
-1 -2 -2 -2 -2 -2 -2 -2 -2 -2 -2 -2 -2 -2 -2 -1 -1 -1 -1 -1 -0 -0 0 0 1 1 1 1 1 1 2 2 2 2 2 2 2 3 3 3 3 3 4 4 4 4 5 5 5 6 6 7 7 7 7 8 8 8 8 8 8 8 9 9 9 9 10 10 10
-2 -2 -2 -2 -2 -2 -2 -2 -2 -2 -2 -2 -2 -2 -2 -1 -1 -1 -1 -1 -0 -0 0 0 1 1 1 1 1 2 2 2 2 2 2 2 2 3 3 3 3 3 3 4 4 4 5 5 5 6 6 7 7 7 7 8 8 8 8 8 8 8 8 9 9 9 10 10 10
-2 -2 -2 -2 -2 -2 -2 -2 -2 -2 -2 -2 -2 -2 -2 -1 -1 -1 -1 -0 -0 0 0 1 1 1 1 2 2 2 2 2 2 2 2 3 3 3 3 3 3 3 3 4 4 4 5 5 5 6 6 7 7 7 8 8 8 8 8 8 8 8 8 8 9 9 9 10 10
-2 -2 -2 -2 -2 -3 -3 -2 -2 -2 -2 -2 -2 -2 -2 -1 -1 -1 -1 -0 -0 0 1 1 1 1 2 2 2 2 2 2 2 3 3 3 3 3 3 3 3 3 3 4 4 4 5 5 5 6 6 7 7 7 8 8 8 8 8 8 8 8 8 8 8 9 9 9 10
-2 -2 -2 -2 -3 -3 -3 -3 -2 -2 -2 -2 -2 -2 -1 -1 -1 -1 -0 -0 0 0 1 1 1 2 2 2 2 2 2 3 3 3 3 3 3 3 3 3 3 3 3 4 4 4 5 5 5 6 6 7 7 8 8 8 8 8 8 8 8 8 8 8 8 9 9 9 9
-2 -2 -2 -3 -3 -3 -3 -3 -3 -2 -2 -2 -2 -2 -1 -1 -1 -1 -0 -0 0 0 1 1 1 2 2 2 2 2 2 3 3 3 3 3 3 4 4 4 4 4 4 4 4 4 5 5 5 6 6 7 7 8 8 8 8 8 8 8 8 8 8 8 8 8 9 9 9
-2 -2 -3 -3 -3 -3 -3 -3 -3 -2 -2 -2 -2 -2 -1 -1 -1 -1 -0 -0 0 1 1 1 1 1 2 2 2 2 2 2 3 3 3 3 4 4 4 4 4 4 4 4 4 4 5 5 5 6 6 7 7 8 8 8 8 8 8 8 8 8 9 9 8 8 9 9 9
-3 -3 -3 -3 -3 -3 -3 -3 -2 -2 -2 -2 -2 -1 -1 -1 -1 -1 -0 0 0 1 1 1 1 1 1 2 2 2 2 2 2 3 3 3 3 4 4 4 4 4 4 4 4 4 4 5 5 6 6 7 7 8 8 8 9 9 8 8 8 9 9 9 9 9 9 9 9
-3 -3 -3 -3 -3 -3 -3 -3 -2 -2 -2 -2 -2 -1 -1 -1 -1 -1 -0 0 0 1 1 1 1 1 1 1 1 2 2 2 2 2 2 3 3 3 3 4 4 4 4 4 4 4 4 5 5 5 6 7 7 8 8 8 9 9 9 8 8 9 9 9 9 9 9 9 9
-3 -3 -3 -3 -3 -3 -3 -3 -2 -2 -2 -2 -2 -1 -1 -1 -1 -1 -0 0 0 0 0 1 1 1 1 1 1 1 1 2 2 2 2 2 3 3 3 3 4 4 4 4 4 4 4 4 4 5 5 6 7 7 8 8 9 9 9 9 9 9 9 9 9 9 9 9 9
-3 -3 -3 -3 -3 -3 -3 -2 -2 -2 -2 -2 -2 -1 -1 -1 -1 -1 -0 -0 -0 0 0 0 0 1 1 1 1 1 1 1 1 1 2 2 2 2 3 3 3 4 4 4 4 4 4 4 4 4 5 5 6 7 7 8 9 9 9 9 9 9 9 9 9 9 9 9 9
-3 -3 -3 -3 -3 -3 -3 -2 -2 -2 -2 -2 -2 -1 -1 -1 -1 -1 -0 -0 -0 -0 -0 0 0 1 1 1 1 1 0 0 1 1 1 1 2 2 2 3 3 3 4 4 4 4 4 4 4 4 4 5 5 6 7 8 8 9 9 9 9 9 9 9 9 9 9 9 9
-3 -3 -3 -3 -3 -3 -3 -2 -2 -2 -2 -2 -2 -2 -1 -1 -1 -1 -1 -1 -0 -0 -0 -0 0 0 1 1 0 0 0 0 0 0 1 1 1 2 2 2 3 3 4 4 4 4 4 4 4 4 4 4 5 5 6 7 8 8 9 9 9 9 9 9 9 9 9 9 9
-3 -3 -3 -3 -3 -3 -3 -3 -2 -2 -2 -2 -2 -2 -1 -1 -1 -1 -1 -1 -1 -0 -0 -0 0 0 0 0 0 0 -0 -0 -0 0 0 0 1 1 2 2 3 4 4 4 4 4 4 5 5 5 5 5 5 5 6 6 7 8 9 9 9 9 9 9 9 9 9 9 9
-3 -3 -3 -3 -3 -3 -3 -3 -2 -2 -2 -2 -2 -2 -1 -1 -1 -1 -1 -1 -1 -0 -0 -0 -0 -0 -0 -0 -0 -0 -0 -0 -0 -0 -0 0 1 1 2 3 4 5 5 6 6 6 5 5 5 5 5 5 5 5 5 6 7 8 8 9 9 9 9 9 9 9 10 9 9
-3 -3 -3 -3 -3 -3 -3 -3 -3 -2 -2 -2 -2 -2 -1 -1 -1 -1 -1 -1 -1 -0 -0 -0 -0 -0 -0 -0 -0 -0 -0 -0 -0 -0 -0 -0 0 1 2 3 5 5 5 6 7 7 7 6 6 6 5 5 5 5 5 6 7 8 8 9 9 9 9 9 9 9 9 9 9
-4 -4 -3 -3 -3 -3 -3 -3 -3 -3 -2 -2 -2 -2 -1 -1 -1 -1 -1 -1 -1 -1 -0 -0 -0 -0 -0 -0 -1 -1 -1 -1 -1 -1 -1 -0 0 1 2 3 5 4 4 5 6 7 7 7 7 7 6 6 5 5 6 6 7 8 8 9 9 9 9 9 9 9 9 9 9
-4 -4 -4 -3 -3 -3 -3 -3 -3 -3 -2 -2 -2 -2 -1 -1 -1 -1 -1 -1 -1 -1 -0 -0 -0 -0 -1 -1 -1 -1 -1 -1 -1 -1 -1 -0 0 1 1 2 3 3 3 4 5 6 7 7 7 7 7 6 6 6 6 6 7 8 8 9 9 9 9 9 9 9 9 9 9
-4 -4 -4 -4 -3 -3 -3 -3 -3 -3 -2 -2 -2 -2 -2 -1 -1 -1 -1 -1 -1 -1 -0 -0 -0 -0 -1 -1 -1 -1 -1 -1 -1 -1 -1 -1 -0 0 1 1 2 2 2 3 4 5 6 6 7 7 7 6 6 6 6 7 7 8 8 9 9 9 9 9 9 9 9 9 9
-4 -4 -4 -4 -4 -3 -3 -3 -3 -3 -3 -2 -2 -2 -2 -2 -1 -1 -1 -1 -1 -1 -0 -0 -0 -0 -1 -1 -1 -1 -1 -1 -1 -1 -1 -1 -1 -0 0 1 1 2 2 3 4 5 6 6 6 6 6 6 6 6 7 7 8 8 8 9 9 9 9 9 9 9 9 9 9
-4 -4 -4 -4 -4 -4 -3 -3 -3 -3 -3 -2 -2 -2 -2 -2 -1 -1 -1 -1 -1 -1 -0 -0 -0 -1 -1 -1 -1 -1 -1 -1 -1 -1 -1 -1 -1 -1 -1 0 1 1 1 2 3 5 5 6 6 6 6 6 6 6 7 8 8 8 8 9 9 9 9 9 8 9 9 9 9
-5 -4 -4 -4 -4 -4 -4 -4 -3 -3 -3 -3 -2 -2 -2 -2 -2 -2 -2 -1 -1 -1 -1 -0 -1 -1 -1 -1 -1 -1 -1 -1 -1 -1 -1 -1 -1 -1 -1 -1 0 0 1 2 3 4 5 6 6 5 5 6 6 7 7 8 8 8 8 9 9 9 9 8 8 9 9 9 8
-5 -5 -4 -4 -4 -4 -4 -4 -4 -3 -3 -3 -3 -2 -2 -2 -2 -2 -2 -2 -1 -1 -1 -1 -1 -1 -1 -1 -1 -1 -1 -1 -1 -1 -1 -1 -1 -1 -1 -1 -1 -0 0 1 3 4 5 6 6 6 5 6 6 7 7 8 8 8 8 8 8 9 8 8 9 9 9 9 8
-5 -5 -4 -4 -4 -4 -4 -4 -4 -4 -3 -3 -3 -2 -2 -2 -2 -2 -2 -2 -1 -1 -1 -1 -1 -1 -1 -1 -1 -1 -1 -1 -1 -1 -1 -1 -1 -1 -1 -1 -1 -1 -0 1 2 4 5 6 6 6 6 6 7 7 7 8 8 8 8 8 8 8 9 9 9 8 8 8 8
Height
731 730 729 728 727 726 724 723 722 721 720 719 717 716 715 714 712 711 710 709 707 706 705 704 703 702 701 700 700 699 698 697 697 696 695 695 694 693 692 692 691 691 690 690 689 689 689 689 689 689 688 688 688 688 688 688 688 688 689 689 689 689 690 690 690 691 691 692 692
729 728 727 726 725 724 722 721 720 719 718 717 715 714 713 712 711 709 707 707 705 704 703 702 701 700 699 698 698 697 696 695 695 694 693 693 692 692 691 690 690 689 689 688 688 688 687 687 687 687 686 686 686 685 685 685 686 687 687 687 687 687 688 688 688 688 689 690 690
727 726 725 724 723 722 721 719 717 717 716 714 713 712 711 710 708 707 706 704 703 702 702 700 699 698 697 697 696 695 694 694 693 692 692 691 690 690 689 688 688 687 687 687 687 686 686 686 686 685 684 684 683 683 683 683 684 684 684 684 685 685 685 685 685 686 687 687 688
725 724 723 722 721 720 718 717 715 714 713 712 711 710 708 707 706 705 703 702 701 700 699 698 697 696 695 695 694 693 692 692 691 691 690 689 688 688 687 687 687 686 686 685 685 685 684 684 684 683 682 682 681 681 681 681 681 682 682 682 682 683 683 682 683 684 684 685 685
723 722 721 720 718 717 716 715 713 712 711 709 708 707 706 705 704 702 701 700 699 698 697 696 695 694 693 692 692 691 690 690 689 688 688 687 686 686 685 685 685 684 684 684 683 683 682 682 682 681 681 680 680 679 679 679 679 679 679 680 680 680 680 680 681 681 682 682 682
721 720 719 717 716 715 713 712 711 709 708 707 705 704 702 702 701 700 699 697 697 695 695 694 693 692 691 690 689 688 688 687 687 686 686 685 684 684 684 683 683 682 682 682 682 681 681 681 680 679 678 678 678 677 677 678 678 677 677 677 677 677 677 678 678 678 679 679 680
719 717 717 715 714 713 711 710 708 707 706 704 702 701 700 699 698 697 696 695 694 693 692 691 690 689 688 687 687 686 685 685 684 684 683 682 682 682 682 681 681 681 680 680 679 679 678 678 677 677 676 676 676 676 676 676 676 676 676 675 675 675 675 676 676 676 677 677 677
717 716 714 713 712 710 709 707 706 705 703 701 700 698 697 696 695 694 693 692 691 690 689 688 687 686 686 685 684 683 682 682 682 681 681 680 680 679 679 679 679 678 678 678 677 677 676 676 675 674 674 674 674 673 673 674 674 674 674 673 673 673 673 673 674 674 674 674 675
714 713 712 710 709 707 706 705 703 702 700 698 697 696 695 693 692 692 691 689 688 687 687 685 684 683 683 682 681 680 680 679 678 678 678 677 677 677 677 677 676 676 676 676 675 675 674 673 673 672 672 672 671 671 672 672 672 672 672 672 672 672 672 672 672 672 673 673 673
712 711 709 708 706 705 703 702 701 699 697 696 694 693 692 690 689 688 687 686 685 684 683 682 681 681 680 679 678 677 677 676 676 675 675 674 674 674 674 674 674 673 673 673 673 673 672 672 671 670 669 669 669 669 670 670 670 670 670 670 670 670 670 670 670 671 671 671 672
710 708 707 706 704 702 701 700 698 696 695 693 691 690 689 687 686 685 684 683 682 681 680 679 678 677 677 676 675 674 674 673 673 672 672 672 671 671 671 671 671 671 671 671 671 671 670 669 668 668 667 667 667 667 668 668 668 668 668 668 668 668 668 668 668 669 669 670 670
708 706 705 703 702 700 698 697 695 694 692 690 688 687 686 684 683 682 681 680 679 678 677 676 675 674 673 672 672 671 671 670 670 669 669 668 668 668 668 668 668 668 668 668 668 668 668 667 666 666 665 665 665 665 666 666 666 667 667 666 667 667 667 667 667 667 667 668 668
706 704 702 701 699 698 696 695 693 691 689 688 686 685 683 682 681 680 678 677 676 675 674 673 672 672 670 669 669 668 668 667 667 667 666 666 665 665 665 665 665 665 665 665 665 665 665 665 664 664 663 663 663 663 663 664 664 664 664 664 665 665 665 665 665 665 665 666 666
704 702 700 699 697 696 694 692 691 689 687 686 684 682 681 680 678 677 676 675 673 672 671 670 669 668 667 667 666 665 665 664 664 663 663 662 662 662 662 662 662 662 662 662 662 662 662 662 662 661 661 661 661 661 661 662 662 662 662 662 662 662 663 663 663 663 664 664 664
702 700 698 697 695 694 692 690 688 687 685 683 682 680 679 677 676 675 673 672 671 669 668 667 666 665 664 663 663 662 661 661 660 660 659 659 659 659 659 658 658 659 659 659 659 659 659 659 659 659 658 658 658 658 659 659 660 660 660 660 660 661 661 662 662 662 662 662 662
700 698 697 695 693 692 690 689 687 685 683 681 680 678 677 675 673 672 671 669 668 667 666 664 663 662 661 660 660 659 658 657 657 657 656 656 656 656 655 655 655 656 656 656 656 656 656 656 656 656 656 656 655 656 656 657 657 657 658 658 659 659 659 660 660 660 661 661 661
698 696 695 693 692 690 688 687 685 683 681 679 677 676 674 672 671 669 668 667 666 664 663 662 661 659 658 657 657 656 655 655 654 653 653 652 652 652 652 652 652 652 653 653 653 653 653 653 653 653 653 653 653 653 653 654 654 655 656 656 657 657 657 658 658 659 659 659 659
696 694 693 691 690 688 686 685 683 681 679 677 675 673 672 670 668 667 666 664 663 662 660 659 658 657 656 655 654 653 652 652 651 650 650 649 649 649 649 649 649 650 650 650 650 650 650 650 650 650 650 650 650 650 651 651 652 652 653 653 654 655 655 656 656 657 657 657 658
694 692 691 689 688 686 684 682 681 679 677 675 673 671 669 668 666 665 663 662 660 659 657 656 655 653 652 652 651 650 649 648 647 647 646 646 646 646 646 646 646 647 647 647 647 647 647 647 647 647 647 647 647 647 648 648 649 649 650 651 652 652 653 653 654 655 655 656 656
692 691 689 688 686 684 682 680 678 677 674 672 671 669 667 665 664 662 661 659 657 656 655 653 652 650 649 648 647 647 646 645 644 643 643 643 643 642 642 643 643 643 643 644 644 644 644 644 644 644 644 644 644 645 645 646 646 647 647 648 649 650 650 651 652 652 653 653 654
691 690 688 686 684 682 681 678 677 675 672 671 669 667 665 663 662 660 658 656 655 653 652 650 649 647 646 645 644 643 642 642 641 640 640 639 639 639 639 639 640 640 640 640 640 641 641 641 641 641 642 642 642 642 642 642 643 644 645 646 646 647 648 649 650 650 651 651 652
690 688 687 685 683 681 679 677 675 673 671 669 667 665 663 661 659 657 656 654 652 651 649 648 646 645 644 642 642 641 640 639 638 637 636 636 636 636 636 636 636 636 636 636 637 637 637 638 638 638 638 638 638 638 639 639 640 641 642 643 644 645 646 646 647 648 648 649 650
689 687 685 683 681 679 677 675 673 671 669 667 665 663 661 659 657 655 653 652 650 649 647 645 644 642 641 640 639 638 637 636 635 634 633 633 632 632 632 632 632 632 632 632 633 633 634 634 635 635 635 636 635 635 636 636 637 638 639 640 641 642 643 644 645 645 646 647 647
687 686 684 682 679 677 675 673 671 669 667 665 663 661 659 657 655 653 652 650 648 647 645 643 642 640 639 638 636 636 635 633 632 631 631 630 630 629 629 629 629 628 628 628 629 630 630 631 631 632 632 632 632 633 633 633 634 635 636 637 638 639 640 641 642 643 643 644 645
686 684 682 680 678 676 674 672 670 667 665 663 661 659 657 655 653 652 650 648 646 645 643 642 640 638 637 636 635 633 632 631 630 629 628 627 627 626 626 626 625 625 624 624 625 625 626 627 628 629 629 630 630 630 630 631 631 632 633 634 636 636 637 638 639 640 641 642 642
685 683 681 679 677 674 672 670 668 666 664 662 660 658 656 654 652 650 648 646 644 643 641 640 638 636 635 634 633 631 631 629 628 627 626 625 624 624 623 623 622 621 621 621 621 621 622 623 625 626 626 627 627 628 628 628 628 629 630 631 633 634 635 635 636 637 638 639 640
683 682 679 677 675 673 671 669 667 664 662 660 658 656 654 652 650 648 647 645 643 641 640 638 636 635 634 632 631 630 629 627 626 625 624 623 622 621 620 620 619 618 617 617 617 618 619 620 621 622 624 625 625 625 626 626 626 626 627 629 630 631 631 632 633 634 635 636 637
683 681 678 676 674 672 670 667 665 663 661 659 657 655 653 651 649 647 645 643 642 640 638 636 635 634 632 631 630 628 627 626 624 623 621 620 619 618 617 616 616 615 614 614 614 614 615 616 617 618 620 621 622 623 623 623 624 624 625 626 627 628 629 630 630 631 632 633 635
682 680 677 675 673 671 669 667 664 662 660 658 656 654 652 650 648 646 644 642 641 639 637 635 634 632 631 629 628 626 625 624 622 621 619 618 616 615 614 613 612 611 610 610 611 611 611 612 613 614 616 618 620 621 621 621 621 622 622 623 624 625 626 627 628 629 630 631 632
681 679 677 675 672 670 668 666 663 661 659 657 655 653 651 649 647 645 643 641 640 638 636 635 633 631 630 628 626 625 623 622 620 619 617 616 614 612 611 610 608 607 606 606 606 607 607 608 609 610 612 614 616 617 618 618 619 619 620 620 621 622 623 624 625 626 627 629 630
681 678 676 674 672 669 667 665 663 661 658 656 654 652 650 648 647 645 643 641 639 637 636 634 632 631 629 627 626 624 622 620 618 617 615 613 611 610 608 606 605 603 602 601 601 602 603 604 605 606 608 610 612 614 615 616 616 616 617 617 618 619 621 622 623 624 625 626 628
680 678 676 673 671 669 667 664 662 660 658 656 654 652 650 648 646 644 642 640 638 636 635 633 631 630 628 626 625 623 621 619 617 616 614 612 610 607 605 603 601 600 598 597 596 597 598 599 601 602 604 606 608 610 611 612 613 614 614 615 616 617 618 619 621 621 623 624 626
680 677 675 673 671 668 666 664 662 660 658 656 654 652 650 648 646 644 642 640 638 636 634 633 631 629 628 626 624 623 621 619 617 615 613 611 608 606 604 601 599 597 595 594 593 593 594 595 596 598 600 602 604 606 608 610 611 611 612 612 614 615 616 617 618 620 621 622 624
679 677 675 672 670 668 666 664 662 660 657 655 653 652 650 647 646 644 642 640 638 636 635 633 631 630 628 626 625 623 621 618 616 614 612 610 607 605 602 600 598 595 593 591 590 591 591 592 594 595 597 599 601 603 605 607 608 609 609 611 611 613 614 615 616 618 619 621 622
679 677 674 672 670 668 666 664 662 660 657 655 653 651 649 647 646 644 642 640 638 636 635 633 631 630 628 626 625 622 621 618 616 614 611 609 606 604 602 599 597 594 592 590 589 589 590 591 592 594 595 597 599 601 603 604 605 606 607 608 610 611 612 613 615 616 618 619 621
679 677 674 672 670 668 666 664 662 659 657 655 653 651 649 647 646 644 642 640 638 636 635 633 631 630 628 626 624 622 621 619 616 614 611 609 606 604 601 599 596 594 592 591 590 589 590 591 592 593 594 596 597 599 601 602 603 604 605 606 608 609 611 612 614 615 616 618 619
679 677 674 672 670 668 666 664 662 659 657 655 653 651 649 648 646 644 642 640 638 636 635 633 631 630 628 626 624 623 621 619 616 614 611 609 606 604 601 598 596 594 592 591 590 589 590 590 591 593 594 595 596 597 599 600 601 602 604 605 606 608 609 611 612 614 615 616 617
679 677 674 672 670 668 666 664 662 660 657 656 653 652 650 648 646 644 642 641 639 637 635 634 632 630 629 627 625 623 621 619 617 615 612 609 607 604 601 599 596 594 592 591 589 589 589 590 591 592 593 594 596 596 598 599 600 601 603 604 606 607 608 610 611 613 614 615 616
679 677 674 672 670 668 666 664 662 660 658 656 654 652 650 648 647 645 643 641 640 638 636 634 632 631 629 627 625 623 621 619 617 615 612 610 608 605 602 600 597 594 592 590 589 588 589 590 591 592 593 594 595 596 597 598 599 600 602 603 605 606 608 609 611 611 612 613 614
679 677 675 672 671 668 666 664 662 660 658 656 654 652 650 649 647 645 643 642 640 638 636 635 633 631 630 627 626 624 622 620 617 615 613 611 608 606 603 600 597 595 592 590 588 587 588 589 590 591 592 594 595 596 597 598 599 600 601 603 604 606 607 608 609 610 611 611 612
679 677 675 673 671 669 667 665 663 661 659 657 655 653 651 649 647 646 644 642 640 639 637 635 634 632 630 628 626 624 622 620 618 616 614 611 609 606 604 601 598 595 592 589 587 586 586 588 589 591 592 594 595 596 597 598 599 600 601 603 604 605 606 607 608 609 610 610 611
Wind_Speed
18 19 19 19 19 19 20 20 20 20 20 20 20 21 21 21 21 21 21 21 21 21 21 21 21 21 21 21 22 22 22 23 23 23 24 25 25 25 24 22 22 21 21 21 21 21 22 22 23 24 25 26 26 27 27 26 26 26 26 26 26 26 26 26 27 27 27 27 26
20 20 20 20 20 20 20 21 21 20 20 20 21 21 21 21 22 22 22 22 21 21 22 22 22 22 23 23 23 23 23 23 23 23 23 24 25 25 25 24 23 22 22 22 22 22 22 22 22 23 24 25 26 27 27 27 27 27 27 28 27 26 26 26 27 27 27 28 27
20 21 20 20 20 20 20 20 21 21 21 22 22 22 22 22 22 23 23 22 22 22 23 23 23 23 23 24 24 24 25 25 24 24 24 24 24 24 24 24 24 23 23 23 23 23 22 22 22 22 22 23 24 25 26 27 27 28 28 29 28 27 26 26 26 26 27 27 28
21 21 21 21 21 22 23 23 23 24 24 23 23 23 24 24 24 24 24 24 24 24 24 24 23 23 23 24 24 24 24 24 24 25 25 25 24 24 24 24 24 24 24 24 24 24 24 24 23 22 22 22 23 24 25 25 26 27 27 28 28 27 27 26 26 25 26 26 27
21 21 22 22 23 23 24 24 25 25 25 24 24 24 24 25 24 25 25 25 24 24 24 24 24 24 24 24 25 25 25 25 25 26 26 26 26 25 24 23 24 24 25 25 25 25 25 25 24 23 22 22 22 22 23 24 25 25 26 26 27 27 27 26 25 25 25 25 26
22 23 23 23 24 25 25 25 25 26 26 25 25 25 25 24 24 24 25 25 26 26 25 25 26 26 26 26 26 26 26 26 26 26 26 27 27 27 26 25 25 25 25 25 25 25 25 25 24 23 23 22 22 22 22 23 23 24 25 25 25 26 26 26 25 25 25 25 25
23 24 24 25 25 25 26 26 26 26 26 26 26 26 26 25 26 26 27 28 28 28 27 26 27 27 27 27 27 27 26 26 26 26 27 27 27 27 27 26 26 26 26 25 25 24 24 24 24 23 23 23 22 22 22 22 23 23 23 24 25 25 25 25 25 25 24 25 26
24 24 25 25 25 26 26 26 27 27 26 26 26 26 27 27 28 28 29 29 29 29 28 27 27 27 27 27 27 27 27 27 27 26 26 26 26 27 27 26 26 26 26 26 25 24 23 23 23 23 23 22 22 21 22 23 23 23 23 24 24 24 24 25 25 24 24 25 26
24 25 25 25 25 26 26 26 26 26 26 27 27 28 28 28 29 29 29 29 29 28 28 28 27 27 28 28 28 28 27 27 27 27 27 27 27 27 26 26 26 26 27 26 26 25 24 23 23 23 22 22 21 21 21 22 23 23 23 23 23 23 23 23 24 24 25 25 25
25 25 25 25 25 26 26 26 26 26 27 28 28 28 28 29 29 29 29 29 28 28 28 28 28 28 28 28 28 28 28 27 27 27 27 27 27 27 27 26 26 26 26 26 25 25 25 24 24 23 23 22 22 21 22 22 23 24 24 23 23 23 23 23 24 25 25 25 25
26 26 25 26 26 26 26 26 26 27 27 27 28 28 28 28 28 28 28 28 28 28 28 28 28 28 28 28 28 28 28 27 27 26 26 26 27 27 27 27 27 27 27 26 26 25 25 24 24 24 24 24 23 23 23 23 23 24 24 23 23 23 23 24 24 24 25 25 25
26 26 26 26 26 26 26 26 26 26 26 27 27 27 27 27 27 27 27 28 28 28 28 28 28 28 28 28 28 27 27 27 27 27 27 27 27 27 27 27 27 27 27 27 27 26 25 25 25 25 25 25 24 24 23 24 24 24 25 25 24 24 24 24 24 24 24 25 25
26 26 26 26 26 26 26 25 25 25 25 26 26 26 26 26 26 26 26 27 27 27 27 27 27 28 28 28 28 27 26 26 26 27 27 27 27 27 27 27 27 27 28 27 27 27 26 26 26 26 26 25 25 25 25 24 25 25 25 26 25 25 25 25 25 24 24 24 24
26 26 26 26 26 26 25 25 24 24 24 24 25 25 25 25 25 25 25 26 26 26 26 27 27 27 27 27 27 27 27 27 27 27 28 28 27 27 27 27 27 27 27 27 27 28 28 27 27 27 27 26 26 26 26 26 26 26 26 26 26 26 26 26 26 25 25 24 24
25 26 26 26 26 25 25 25 24 23 23 23 23 23 24 24 24 24 24 25 25 26 26 26 26 26 27 27 27 27 27 27 27 28 28 28 27 27 27 27 27 27 27 26 27 27 28 28 29 29 28 27 27 26 26 27 27 27 26 26 26 26 26 26 26 26 25 25 24
25 25 25 25 25 25 24 24 23 23 23 23 24 24 24 24 24 24 24 25 25 25 25 26 26 26 26 26 27 27 27 27 27 27 27 27 27 27 27 27 27 27 26 26 26 27 28 28 29 29 29 28 27 27 27 27 27 27 27 27 27 27 27 27 26 26 26 25 25
25 25 25 25 25 25 25 24 24 23 24 24 25 25 25 25 25 24 25 25 25 25 25 26 26 26 26 26 26 26 26 26 27 27 27 27 27 27 27 27 27 27 27 27 27 27 28 28 28 28 28 28 28 27 27 28 28 28 28 28 28 27 27 27 27 27 26 26 26
25 25 25 25 25 25 25 25 25 25 25 25 25 25 25 25 25 25 25 25 25 26 26 27 27 26 26 26 26 26 26 26 26 26 26 26 26 27 27 27 27 27 27 27 28 28 28 28 28 28 28 28 28 28 28 28 28 28 28 29 28 28 28 28 28 27 27 27 27
25 24 25 25 25 25 25 25 25 25 25 25 25 25 25 25 25 25 26 26 26 26 27 27 27 27 27 27 26 26 26 26 26 26 27 27 27 27 27 27 27 27 27 27 28 28 29 29 29 28 28 28 28 28 28 28 28 28 28 29 29 29 29 29 29 28 28 28 28
24 24 25 25 25 25 25 25 25 25 25 25 25 26 26 26 26 26 26 26 26 26 26 26 26 26 26 26 26 26 26 26 27 27 27 27 27 27 27 27 27 27 27 27 28 28 28 29 29 29 29 28 28 27 28 28 28 28 28 28 28 29 29 30 30 29 29 29 28
24 25 25 25 25 25 25 25 25 25 25 26 26 26 26 26 25 25 25 26 25 25 25 25 25 25 25 25 25 26 26 26 27 27 28 28 28 28 27 27 27 27 27 27 27 28 28 28 28 28 28 28 28 28 28 28 28 28 28 28 28 28 29 30 30 30 30 29 29
24 25 25 25 25 25 25 25 25 25 25 25 25 25 25 25 25 25 25 25 24 24 24 24 24 24 24 24 24 24 25 25 25 26 26 27 27 27 27 27 27 27 28 28 28 28 28 28 28 28 28 28 28 27 27 27 27 27 27 27 27 28 28 29 29 30 30 30 30
24 25 25 25 24 24 24 25 25 25 24 24 24 24 24 24 24 24 24 23 23 23 23 22 22 22 22 22 23 23 23 24 24 24 25 26 26 27 27 27 27 28 28 28 28 28 28 28 28 28 28 28 27 27 27 27 27 27 27 27 27 27 28 28 29 29 30 30 30
25 25 25 25 24 24 24 24 24 24 24 24 24 24 23 23 23 23 23 22 22 21 21 21 21 21 21 21 21 22 22 23 23 24 25 25 26 26 26 27 27 28 28 28 28 28 27 27 27 27 27 27 27 26 26 26 26 26 26 27 27 27 27 27 28 29 29 29 29
25 25 25 24 24 24 24 24 24 24 23 23 23 23 23 23 22 22 21 21 20 20 20 20 19 19 19 19 20 20 21 21 22 23 24 24 25 26 26 26 27 27 27 27 28 29 29 28 27 26 25 25 26 26 26 25 26 26 26 26 26 26 26 27 28 28 29 29 29
25 25 24 24 24 24 24 24 24 23 23 23 23 22 22 22 21 21 20 20 19 19 19 18 18 18 17 18 18 18 19 19 20 21 22 23 24 25 25 26 26 26 26 27 29 31 32 32 31 29 26 25 25 25 25 24 25 26 26 26 26 26 26 27 27 28 29 29 29
25 24 24 24 24 24 24 23 23 23 23 23 22 22 22 21 21 20 19 19 19 18 18 17 17 16 16 16 16 17 17 18 19 20 21 22 23 24 24 25 25 25 26 28 29 31 33 34 35 34 31 27 25 24 24 24 25 26 26 27 27 27 27 27 27 28 28 29 29
24 24 24 24 24 24 23 23 23 23 23 23 22 22 21 21 20 20 19 19 18 18 17 16 16 15 15 15 15 16 17 17 18 19 20 21 22 23 24 24 25 25 27 28 30 32 34 35 37 37 36 33 29 26 25 25 24 25 26 26 27 27 28 28 27 27 27 28 28
24 23 23 23 23 23 23 23 23 23 23 22 22 21 21 21 20 19 19 19 18 18 17 16 16 15 15 15 16 16 17 17 18 18 19 20 21 22 23 24 25 26 28 30 31 32 34 35 37 38 39 37 32 28 26 25 25 25 25 25 26 27 28 28 27 26 26 26 27
23 23 23 23 23 23 23 22 22 23 22 22 22 21 21 20 20 19 19 19 18 18 17 17 16 16 16 16 17 17 17 17 17 17 18 19 20 21 23 23 24 26 28 30 32 33 34 36 37 38 39 39 37 32 28 26 25 24 25 25 26 27 28 28 27 26 26 26 26
23 23 23 23 23 22 22 22 22 22 22 21 21 21 20 19 19 19 18 18 18 18 18 17 17 17 17 17 17 17 18 18 18 18 18 19 20 21 22 23 24 26 29 31 33 34 35 36 37 38 38 39 39 35 30 28 26 25 25 25 26 27 27 27 27 27 26 25 25
23 22 22 22 22 22 22 22 22 21 21 21 20 20 19 19 19 18 18 18 18 18 18 17 17 17 17 17 17 18 18 19 19 19 19 19 20 20 21 22 23 25 27 30 32 34 35 36 37 37 38 39 39 36 32 29 26 25 25 25 26 27 27 27 26 26 26 26 25
22 22 22 22 22 22 22 21 21 21 21 21 20 19 19 19 19 18 18 18 18 18 17 17 17 17 18 18 18 18 19 19 19 19 19 19 19 19 20 20 18 17 16 18 23 27 29 31 34 36 37 38 37 35 32 30 27 25 25 25 26 27 27 27 26 25 25 25 25
22 22 22 22 22 21 21 21 21 21 21 20 19 19 19 19 19 18 18 18 18 17 17 17 17 17 17 18 18 18 19 19 20 20 20 19 19 18 17 16 13 12 10 7 9 15 20 23 27 30 33 36 35 33 31 29 27 25 24 25 26 26 26 26 26 25 25 25 24
22 22 22 21 21 21 21 21 21 21 20 20 19 19 19 19 18 18 18 18 18 17 17 17 17 17 18 18 18 18 19 20 20 21 20 19 18 17 16 15 14 14 13 8 5 7 11 15 19 23 27 32 32 30 28 28 27 26 25 24 25 25 24 25 25 25 25 25 24
22 22 21 21 21 21 21 21 21 20 20 20 19 19 19 19 18 17 18 18 18 17 17 17 17 18 18 19 18 18 19 19 20 21 21 20 19 18 17 16 16 15 14 10 6 6 9 11 12 15 20 25 26 26 25 25 25 25 25 24 23 22 22 23 24 24 24 24 24
22 21 21 21 21 21 21 20 20 20 20 20 19 19 19 19 18 18 18 18 18 17 17 17 17 18 19 19 19 18 19 19 20 21 21 20 20 19 18 17 17 17 15 11 8 7 9 10 10 12 15 19 20 20 20 21 22 23 23 22 21 20 21 21 22 23 23 23 23
21 21 21 21 21 20 20 20 20 20 20 20 19 19 19 18 18 18 18 18 17 17 16 16 17 18 19 20 19 19 19 19 20 20 21 21 21 20 19 18 18 18 16 12 8 9 11 11 11 12 13 16 15 15 17 18 19 19 19 19 18 19 19 19 19 21 22 23 23
21 21 21 21 21 20 20 20 20 20 20 20 19 19 19 18 17 17 18 17 16 16 16 16 17 18 19 20 19 18 19 20 20 20 21 21 21 22 21 19 19 19 18 13 8 9 12 13 13 13 14 15 13 14 15 16 16 16 16 16 16 17 17 17 18 19 20 21 21
21 21 21 21 20 20 20 20 20 20 20 20 20 19 18 18 17 17 17 17 16 16 15 15 17 18 19 19 18 18 19 20 20 21 21 21 22 23 23 21 21 21 20 16 8 9 14 16 15 15 14 14 13 13 14 14 14 14 13 13 13 13 15 16 16 16 16 16 16
21 21 21 21 20 20 20 20 21 21 21 20 20 19 17 17 17 17 17 17 16 16 15 15 16 18 18 19 18 18 19 20 20 20 21 22 23 24 24 24 24 23 23 19 9 5 14 18 18 17 15 13 13 13 12 12 12 12 12 11 11 11 11 12 13 12 11 11 12
Wind_Direction
288 286 284 283 281 280 279 277 276 275 274 273 272 272 272 271 271 270 270 269 268 269 269 269 269 269 270 270 269 269 269 268 267 266 266 266 266 268 271 273 273 270 265 260 256 253 250 247 243 241 239 237 236 235 234 232 231 230 229 229 228 228 228 228 228 229 228 229 230
288 286 284 283 281 279 277 277 275 274 272 271 270 270 270 270 270 270 269 268 267 267 269 269 269 269 269 270 270 270 270 270 270 270 268 266 265 265 267 268 269 269 267 264 259 255 252 248 245 242 240 237 236 235 234 232 231 231 231 230 229 229 229 229 229 229 229 230 230
289 287 285 283 280 278 277 276 275 274 273 273 272 271 270 270 270 270 269 268 268 268 268 269 269 269 268 269 268 268 268 269 270 270 270 267 265 264 265 266 267 267 266 264 260 256 253 250 247 245 242 239 236 235 234 232 231 230 230 230 230 229 229 229 229 229 229 229 229
289 287 285 283 280 279 278 277 277 276 276 275 273 272 270 270 270 270 270 270 269 267 267 267 268 268 268 267 266 266 265 266 267 267 268 267 267 266 264 264 265 265 265 263 260 257 253 250 248 247 245 242 240 237 235 233 231 230 229 229 229 229 229 229 228 228 228 228 228
290 288 286 284 283 282 280 279 279 278 277 275 273 272 270 270 270 270 270 270 269 267 267 267 267 267 267 266 266 265 265 265 265 265 266 267 268 268 267 265 263 262 261 260 259 256 253 250 248 246 245 243 242 239 237 234 232 230 229 228 227 227 227 227 227 227 226 226 226
291 290 289 287 286 285 284 282 281 280 278 276 274 272 271 269 269 268 269 269 269 269 268 268 267 267 266 265 265 265 265 264 264 263 263 264 265 265 265 264 262 260 259 259 258 256 253 249 247 245 243 242 241 240 237 235 233 231 229 227 226 225 225 225 225 225 224 224 223
292 292 291 289 288 287 285 284 283 282 280 279 276 274 272 271 270 269 269 269 270 270 269 268 266 265 264 264 263 263 262 262 262 262 261 261 261 260 260 261 261 260 260 260 260 258 254 249 246 244 242 240 240 239 236 234 232 230 229 227 225 223 223 223 223 223 223 222 221
293 292 291 289 288 286 285 284 283 282 280 279 277 275 274 273 272 271 271 270 270 269 268 267 265 264 263 262 261 261 261 260 260 260 259 259 258 257 257 258 259 259 260 260 260 259 256 252 248 244 241 238 237 236 234 232 231 229 228 226 225 223 222 221 221 222 222 221 220
294 292 291 290 289 287 286 285 283 281 280 278 276 275 275 274 274 273 272 270 269 268 267 266 264 263 262 261 261 260 260 259 258 258 257 257 256 256 256 256 256 257 257 258 259 259 258 256 251 246 242 238 236 234 233 231 230 228 227 225 225 223 222 220 220 220 221 221 219
295 294 294 293 291 290 289 287 285 283 281 279 278 277 276 275 274 272 271 269 268 266 264 264 263 263 262 261 260 259 259 258 257 257 256 255 254 254 254 253 253 253 254 255 256 256 257 256 252 248 244 240 237 234 233 231 230 228 226 225 224 223 223 220 218 218 219 219 219
297 296 295 294 293 292 291 289 288 286 284 282 280 279 277 275 273 272 271 269 267 265 264 263 263 262 261 260 260 259 258 257 256 256 254 253 253 252 251 251 250 250 250 251 252 253 254 254 252 249 245 241 238 235 233 231 230 228 226 225 224 224 224 222 219 217 217 218 218
299 298 297 296 295 294 292 291 289 288 286 284 282 281 279 277 275 274 272 271 268 266 265 263 262 262 261 261 260 259 258 257 256 255 254 253 252 251 250 249 248 248 247 248 248 249 250 251 251 249 246 242 238 235 233 231 229 229 227 226 225 225 225 225 222 218 216 216 216
301 301 300 299 298 297 295 293 292 290 288 286 284 283 282 280 278 276 274 272 270 268 266 265 263 262 262 261 260 259 258 257 255 254 253 253 252 251 249 248 247 246 245 245 244 244 245 247 248 248 245 241 237 234 232 230 228 228 227 225 225 224 224 225 224 221 218 215 215
304 303 302 302 301 301 299 297 295 293 290 288 286 285 284 282 280 278 276 273 272 270 268 267 265 263 262 260 259 258 257 256 255 254 252 251 250 249 248 248 246 245 244 243 242 241 242 243 244 245 244 240 236 233 231 229 228 227 226 226 225 224 224 224 224 223 221 219 216
306 305 305 305 305 304 302 300 297 294 292 289 288 286 285 284 282 279 277 275 274 272 271 269 267 264 263 261 259 258 256 255 254 253 252 251 250 248 247 247 246 245 244 242 241 240 239 240 240 241 241 239 236 232 230 228 227 227 226 226 225 225 225 225 224 224 224 223 221
308 308 308 307 306 305 303 300 298 295 292 291 289 288 286 285 283 281 278 276 275 273 272 270 268 267 265 263 262 260 259 258 256 255 254 253 251 250 248 247 246 245 244 243 242 241 240 239 239 239 239 238 235 232 229 227 226 226 225 225 225 225 225 224 224 224 225 225 225
310 310 309 308 307 305 303 301 298 296 293 291 290 288 287 286 284 282 279 277 276 274 272 271 269 268 266 265 264 262 261 260 258 256 255 254 252 251 250 248 247 246 245 244 244 243 242 241 239 238 238 237 235 232 229 227 226 225 224 224 223 223 223 223 223 224 224 225 226
312 311 310 309 307 305 303 301 299 297 294 293 291 290 289 287 285 283 281 279 277 275 273 272 270 268 266 265 264 262 261 259 258 256 255 254 253 252 250 249 247 246 245 244 243 243 243 242 241 240 238 236 235 232 230 228 226 225 224 223 222 222 222 222 222 222 223 224 225
312 312 311 309 308 306 303 301 299 298 296 295 293 292 290 289 287 285 283 281 278 276 274 273 271 269 267 265 263 262 261 259 258 257 256 255 253 252 251 249 248 246 245 244 243 243 242 242 241 241 239 237 235 232 230 228 226 225 224 223 222 221 221 221 221 221 222 222 223
313 313 312 310 308 306 304 302 300 299 298 297 295 293 292 290 289 287 285 283 281 279 276 275 273 271 268 266 265 263 262 261 259 258 257 256 254 252 251 250 248 247 246 245 244 243 242 242 241 240 240 238 235 232 230 228 227 225 224 223 222 221 221 220 220 220 220 221 222
314 313 312 310 309 306 304 303 301 300 298 297 296 295 293 292 291 289 287 286 284 282 280 278 276 274 272 270 268 266 264 263 261 259 258 256 254 252 251 250 249 248 246 245 244 243 243 241 240 240 239 238 236 233 230 228 226 225 224 223 223 222 221 220 220 220 220 220 220
315 314 313 311 309 307 305 304 303 302 300 298 297 296 295 294 293 292 290 289 288 286 284 282 280 278 276 274 271 269 267 265 262 260 258 257 255 253 252 250 249 247 246 245 243 243 242 241 240 239 238 238 236 233 230 227 226 224 223 223 223 222 221 220 220 220 220 220 220
316 315 313 312 310 307 306 305 305 303 302 300 299 299 298 297 296 295 294 293 292 290 288 286 284 281 279 276 274 272 270 267 264 261 259 258 257 255 253 251 249 247 245 244 242 241 240 240 239 239 238 238 237 235 231 227 225 223 223 223 223 222 222 220 220 220 221 221 221
317 316 314 313 311 309 308 307 307 306 305 303 303 302 301 300 299 299 298 296 295 293 292 290 288 285 283 281 278 275 273 270 268 265 262 260 258 256 254 252 249 247 245 243 241 239 237 237 237 236 236 236 237 237 234 229 225 223 222 222 222 222 222 221 220 220 221 221 221
318 317 316 314 313 311 311 310 309 308 307 306 306 305 305 304 303 303 302 300 299 298 296 295 293 290 288 285 282 279 276 273 270 268 266 263 260 258 255 253 250 248 245 243 240 237 235 234 233 233 234 234 235 236 235 232 228 224 222 221 222 222 222 222 221 221 221 222 221
320 319 317 316 315 314 313 312 311 311 310 309 309 309 309 308 308 307 307 306 305 304 303 301 299 296 293 290 286 283 279 276 273 271 268 266 263 260 257 254 251 249 246 243 240 237 235 233 232 231 232 233 233 234 235 234 230 226 223 222 222 222 222 222 222 221 221 222 222
322 320 319 318 317 316 315 314 313 313 313 313 313 313 313 313 313 312 312 312 312 312 311 308 306 303 299 296 292 289 286 282 279 275 272 269 266 262 259 255 252 249 246 243 240 238 236 234 232 230 230 231 233 234 235 234 232 228 225 223 223 222 222 223 222 221 221 221 222
323 322 321 320 319 317 317 316 316 316 317 317 317 317 317 317 317 317 317 317 318 318 317 314 312 310 307 304 301 298 295 291 287 282 278 274 270 266 262 258 254 251 247 244 241 239 236 234 232 230 229 228 231 233 234 234 233 230 227 225 224 223 223 223 223 222 221 221 221
324 323 322 321 320 319 319 319 319 320 320 320 321 321 321 321 321 321 321 322 322 322 321 319 318 318 316 313 310 308 304 300 295 290 285 280 276 271 266 262 258 254 250 246 243 240 238 235 233 231 229 227 227 229 232 232 233 231 229 226 224 223 223 223 223 222 220 220 220
326 324 323 322 321 321 321 321 322 323 323 323 323 324 324 325 325 325 325 325 325 324 324 324 324 323 322 321 319 317 314 310 305 300 294 288 284 279 274 269 264 259 255 250 246 242 239 236 234 231 229 226 225 226 228 230 230 229 228 227 225 223 222 222 221 221 220 219 218
327 326 324 324 323 323 323 324 324 324 324 324 324 325 326 326 327 327 327 327 326 326 327 329 330 329 329 328 326 324 321 318 314 309 303 297 292 288 283 278 272 265 260 255 251 246 241 238 235 232 230 227 224 224 226 227 228 227 226 226 224 222 221 220 220 219 218 217 216
328 327 327 326 326 326 326 326 326 326 325 325 325 327 329 328 329 329 329 329 329 330 332 334 336 335 335 334 332 329 327 325 321 317 312 306 301 297 292 287 278 270 264 258 252 248 243 239 236 233 230 228 224 222 223 225 226 226 225 224 223 222 220 219 218 217 217 216 215
330 329 329 328 328 328 328 328 328 328 328 328 328 329 331 331 332 332 332 333 333 334 336 338 340 340 338 337 335 333 331 329 327 324 319 314 310 306 301 295 286 282 276 261 250 245 242 239 236 234 231 228 224 222 222 223 224 224 223 222 221 220 219 217 216 216 216 215 215
332 331 331 331 331 330 330 330 331 331 330 330 331 332 334 334 334 334 335 336 335 336 338 341 342 341 340 339 337 335 335 334 333 331 328 324 319 316 312 308 309 320 325 296 249 237 236 236 235 234 232 229 224 220 219 220 221 221 220 219 218 218 216 215 215 215 215 215 215
333 333 333 333 333 333 333 334 334 333 332 333 334 335 336 336 336 336 337 337 337 338 341 344 345 344 342 340 339 338 338 338 337 336 335 333 330 327 324 323 324 327 327 317 266 226 224 228 230 231 230 227 222 219 217 218 218 217 216 215 214 214 213 213 214 214 215 215 215
336 335 334 334 335 336 336 336 335 335 335 335 336 337 338 338 338 339 339 339 339 340 343 345 347 347 345 343 342 341 341 341 340 340 341 342 340 338 335 333 333 332 328 316 282 231 213 215 220 225 226 223 218 216 215 214 214 212 211 211 210 210 210 211 212 213 213 214 214
338 337 336 336 336 338 338 338 338 337 337 337 338 339 339 339 339 340 341 341 341 341 343 346 348 349 348 345 343 343 343 343 344 345 347 349 349 347 343 340 341 340 335 320 288 240 214 206 208 215 219 217 213 211 210 209 208 207 206 206 206 207 207 209 210 211 211 211 211
340 340 339 339 339 340 340 340 340 340 339 339 339 340 340 341 341 342 342 341 340 340 343 346 350 351 349 346 344 344 346 348 350 351 352 354 355 354 350 347 346 347 344 329 289 242 217 206 204 208 210 208 206 205 205 204 202 202 201 202 203 204 206 207 208 209 210 210 211
342 342 342 342 342 342 342 342 342 342 341 340 340 341 342 343 343 343 342 341 341 342 344 348 351 351 349 347 346 346 348 352 353 354 356 358 359 360 358 355 353 352 351 342 299 242 218 207 203 204 204 201 200 200 201 200 199 198 198 198 200 202 204 205 207 209 210 212 216
345 345 345 345 345 345 345 345 345 344 343 342 342 342 342 344 343 343 343 343 345 345 347 349 351 351 350 349 349 349 350 352 355 357 359 1 3 5 6 4 1 359 359 354 322 242 217 207 202 200 199 195 194 195 197 197 197 197 197 197 198 199 202 205 208 211 213 217 226
348 348 348 348 348 348 348 347 347 347 346 345 344 344 343 344 344 345 346 347 348 350 350 351 352 352 352 353 353 353 353 354 356 359 2 5 7 10 11 10 8 7 7 7 355 245 212 204 200 196 192 188 187 190 192 194 194 196 198 199 201 202 205 208 212 217 223 229 235